• In Netherlands
  • List of Countries
  • For 7 days
  • Water Temperature
  • Satellite Maps
  • Weather Map
  • Weather Widgets
  • user-avatar
    Login

    Hourly Weather Hrazdan

    Today, 21 July, Friday

    Time Temperature Precipitation Wind Pressure Humidity
    00:00 +15°C° 0 mm 2 mps 613 mmHg 60%
    01:00 +15°C° 0 mm 2 mps 613 mmHg 60%
    02:00 +14°C° 0 mm 2 mps 613 mmHg 60%
    03:00 +14°C° 0 mm 2 mps 613 mmHg 60%
    04:00 +15°C° 0 mm 2 mps 613 mmHg 60%
    05:00 +15°C° 0 mm 2 mps 613 mmHg 60%
    06:00 +16°C° 0 mm 2 mps 614 mmHg 60%
    07:00 +18°C° 0 mm 2 mps 614 mmHg 54%
    08:00 +20°C° 0 mm 2 mps 615 mmHg 48%
    09:00 +24°C° 0 mm 2 mps 616 mmHg 42%
    10:00 +25°C° 0 mm 2 mps 616 mmHg 40%
    11:00 +26°C° 0 mm 2 mps 616 mmHg 38%
    12:00 +28°C° 0 mm 2 mps 616 mmHg 35%
    13:00 +28°C° 0 mm 2 mps 616 mmHg 36%
    14:00 +28°C° 0 mm 3 mps 616 mmHg 36%
    15:00 +29°C° 0 mm 3 mps 616 mmHg 37%
    16:00 +28°C° 0 mm 3 mps 616 mmHg 41%
    17:00 +27°C° 0 mm 3 mps 615 mmHg 46%
    18:00 +26°C° 0 mm 3 mps 615 mmHg 50%
    19:00 +22°C° 0 mm 3 mps 615 mmHg 53%
    20:00 +20°C° 0 mm 3 mps 614 mmHg 56%
    21:00 +18°C° 0 mm 3 mps 614 mmHg 59%
    22:00 +17°C° 0 mm 2 mps 614 mmHg 57%
    23:00 +17°C° 0 mm 2 mps 614 mmHg 54%

    Tomorrow, 22 July, Saturday

    Time Temperature Precipitation Wind Pressure Humidity
    00:00 +16°C° 0 mm 2 mps 614 mmHg 52%
    01:00 +16°C° 0 mm 2 mps 614 mmHg 51%
    02:00 +15°C° 0 mm 2 mps 614 mmHg 50%
    03:00 +15°C° 0 mm 2 mps 614 mmHg 49%
    04:00 +15°C° 0 mm 2 mps 614 mmHg 50%
    05:00 +15°C° 0 mm 2 mps 614 mmHg 51%
    06:00 +16°C° 0 mm 2 mps 615 mmHg 52%
    07:00 +18°C° 0 mm 2 mps 615 mmHg 47%
    08:00 +21°C° 0 mm 2 mps 616 mmHg 42%
    09:00 +24°C° 0 mm 2 mps 617 mmHg 36%
    10:00 +25°C° 0 mm 2 mps 617 mmHg 35%
    11:00 +26°C° 0 mm 2 mps 617 mmHg 33%
    12:00 +28°C° 0 mm 3 mps 617 mmHg 32%
    13:00 +28°C° 0 mm 3 mps 617 mmHg 32%
    14:00 +28°C° 0 mm 3 mps 617 mmHg 33%
    15:00 +28°C° 0 mm 3 mps 616 mmHg 33%
    16:00 +27°C° 0 mm 3 mps 616 mmHg 37%
    17:00 +26°C° 0 mm 3 mps 615 mmHg 42%
    18:00 +25°C° 0 mm 3 mps 615 mmHg 47%
    19:00 +22°C° 0 mm 3 mps 615 mmHg 50%
    20:00 +20°C° 0 mm 3 mps 614 mmHg 53%
    21:00 +18°C° 0 mm 3 mps 614 mmHg 56%
    22:00 +17°C° 0 mm 2 mps 614 mmHg 56%
    23:00 +17°C° 0 mm 2 mps 614 mmHg 56%

    Day after tomorrow, 23 July, Sunday

    Time Temperature Precipitation Wind Pressure Humidity
    00:00 +16°C° 0 mm 2 mps 614 mmHg 56%
    01:00 +16°C° 0 mm 2 mps 613 mmHg 56%
    02:00 +15°C° 0 mm 2 mps 613 mmHg 57%
    03:00 +15°C° 0 mm 2 mps 613 mmHg 58%
    04:00 +15°C° 0 mm 2 mps 613 mmHg 58%
    05:00 +16°C° 0 mm 2 mps 613 mmHg 58%
    06:00 +16°C° 0 mm 1 mps 613 mmHg 58%
    07:00 +19°C° 0 mm 1 mps 614 mmHg 51%
    08:00 +21°C° 0 mm 2 mps 615 mmHg 45%
    09:00 +24°C° 0 mm 2 mps 615 mmHg 38%
    10:00 +26°C° 0 mm 2 mps 615 mmHg 36%
    11:00 +27°C° 0 mm 2 mps 615 mmHg 35%
    12:00 +28°C° 0 mm 2 mps 615 mmHg 33%
    13:00 +28°C° 0 mm 2 mps 615 mmHg 33%
    14:00 +28°C° 0 mm 3 mps 615 mmHg 34%
    15:00 +29°C° 0 mm 3 mps 614 mmHg 34%
    16:00 +28°C° 0 mm 3 mps 614 mmHg 39%
    17:00 +26°C° 0 mm 3 mps 613 mmHg 43%
    18:00 +25°C° 0 mm 3 mps 613 mmHg 48%
    19:00 +22°C° 0 mm 3 mps 613 mmHg 50%
    20:00 +20°C° 0 mm 3 mps 613 mmHg 52%
    21:00 +18°C° 0 mm 3 mps 612 mmHg 54%
    22:00 +17°C° 0 mm 3 mps 612 mmHg 55%
    23:00 +16°C° 0 mm 3 mps 612 mmHg 55%

    24 July, Monday

    Time Temperature Precipitation Wind Pressure Humidity
    00:00 +16°C° 0 mm 2 mps 612 mmHg 56%
    01:00 +15°C° 0 mm 2 mps 612 mmHg 60%
    02:00 +15°C° 0 mm 2 mps 611 mmHg 65%
    03:00 +14°C° 0 mm 2 mps 611 mmHg 69%
    04:00 +14°C° 0 mm 2 mps 611 mmHg 70%
    05:00 +15°C° 0 mm 2 mps 612 mmHg 71%
    06:00 +15°C° 0 mm 2 mps 612 mmHg 71%
    07:00 +18°C° 0 mm 2 mps 613 mmHg 64%
    08:00 +20°C° 0 mm 2 mps 613 mmHg 56%
    09:00 +23°C° 0 mm 2 mps 614 mmHg 48%
    10:00 +24°C° 0 mm 2 mps 614 mmHg 45%
    11:00 +25°C° 0 mm 2 mps 614 mmHg 42%
    12:00 +27°C° 0 mm 2 mps 614 mmHg 39%
    13:00 +27°C° 0 mm 3 mps 614 mmHg 39%
    14:00 +28°C° 0 mm 3 mps 614 mmHg 39%
    15:00 +28°C° 0 mm 3 mps 613 mmHg 39%
    16:00 +27°C° 0.1 mm 3 mps 613 mmHg 43%
    17:00 +26°C° 0.1 mm 3 mps 613 mmHg 47%
    18:00 +25°C° 0.1 mm 3 mps 612 mmHg 51%
    19:00 +22°C° 0 mm 3 mps 612 mmHg 56%
    20:00 +20°C° 0 mm 3 mps 612 mmHg 60%
    21:00 +18°C° 0 mm 2 mps 612 mmHg 65%
    22:00 +17°C° 0.1 mm 2 mps 611 mmHg 65%
    23:00 +17°C° 0.1 mm 2 mps 611 mmHg 65%

    25 July, Tuesday

    Time Temperature Precipitation Wind Pressure Humidity
    00:00 +16°C° 0.1 mm 2 mps 611 mmHg 65%
    01:00 +16°C° 0 mm 2 mps 611 mmHg 66%
    02:00 +15°C° 0 mm 2 mps 611 mmHg 68%
    03:00 +15°C° 0 mm 2 mps 611 mmHg 69%
    04:00 +15°C° 0 mm 2 mps 611 mmHg 68%
    05:00 +16°C° 0 mm 2 mps 611 mmHg 66%
    06:00 +16°C° 0 mm 2 mps 612 mmHg 65%
    07:00 +18°C° 0 mm 2 mps 612 mmHg 57%
    08:00 +20°C° 0 mm 2 mps 613 mmHg 49%
    09:00 +23°C° 0 mm 2 mps 613 mmHg 41%
    10:00 +25°C° 0 mm 2 mps 613 mmHg 39%
    11:00 +26°C° 0 mm 2 mps 614 mmHg 36%
    12:00 +27°C° 0 mm 3 mps 614 mmHg 34%
    13:00 +28°C° 0 mm 3 mps 613 mmHg 34%
    14:00 +28°C° 0 mm 3 mps 613 mmHg 34%
    15:00 +28°C° 0 mm 3 mps 613 mmHg 34%
    16:00 +27°C° 0.6 mm 3 mps 613 mmHg 40%
    17:00 +26°C° 0.6 mm 3 mps 612 mmHg 45%
    18:00 +25°C° 0.6 mm 3 mps 612 mmHg 50%
    19:00 +22°C° 0.7 mm 3 mps 612 mmHg 58%
    20:00 +20°C° 0.7 mm 3 mps 611 mmHg 66%
    21:00 +17°C° 0.7 mm 3 mps 611 mmHg 74%
    22:00 +16°C° 0.3 mm 2 mps 611 mmHg 76%
    23:00 +16°C° 0.3 mm 2 mps 611 mmHg 78%

    26 July, Wednesday

    Time Temperature Precipitation Wind Pressure Humidity
    00:00 +15°C° 0.3 mm 2 mps 611 mmHg 79%
    01:00 +15°C° 0 mm 2 mps 611 mmHg 80%
    02:00 +14°C° 0 mm 2 mps 611 mmHg 81%
    03:00 +14°C° 0 mm 2 mps 611 mmHg 82%
    04:00 +14°C° 0 mm 2 mps 611 mmHg 80%
    05:00 +15°C° 0 mm 1 mps 612 mmHg 77%
    06:00 +15°C° 0 mm 1 mps 612 mmHg 75%
    07:00 +19°C° 0 mm 1 mps 613 mmHg 65%
    08:00 +21°C° 0 mm 1 mps 614 mmHg 54%
    09:00 +24°C° 0 mm 1 mps 614 mmHg 44%
    10:00 +25°C° 0 mm 2 mps 615 mmHg 40%
    11:00 +26°C° 0 mm 2 mps 615 mmHg 37%
    12:00 +28°C° 0 mm 2 mps 615 mmHg 33%
    13:00 +28°C° 0 mm 2 mps 615 mmHg 33%
    14:00 +29°C° 0 mm 2 mps 615 mmHg 33%
    15:00 +29°C° 0 mm 2 mps 615 mmHg 32%
    16:00 +28°C° 0.2 mm 2 mps 614 mmHg 38%
    17:00 +27°C° 0.2 mm 2 mps 614 mmHg 44%
    18:00 +26°C° 0.2 mm 2 mps 614 mmHg 49%
    19:00 +23°C° 0.2 mm 2 mps 613 mmHg 58%
    20:00 +20°C° 0.2 mm 2 mps 613 mmHg 66%
    21:00 +18°C° 0.2 mm 2 mps 613 mmHg 74%
    22:00 +17°C° 0.1 mm 2 mps 613 mmHg 75%
    23:00 +17°C° 0.1 mm 2 mps 613 mmHg 76%
    Show more